sat.trackr.live / text

‹ back to catalog

ONEWEB-0085

NORAD 45438 · 2020-020Q

PAYLOAD ACTIVE UNKNOWN

§ Identity

Operator
Country
UK
Launch date
2020-03-21
Launch site
TYMSC
Launch vehicle
Mass (kg)
RCS (m²)

Purposes: comms

External: N2YO · Heavens-Above · Gunter

§ Orbital elements

Epoch: 2026-09-20T01:04:03.936000Z

Period
109.81 min
Inclination
87.8972°
Eccentricity
0.0001782
Mean motion
13.11414654 rev/d
Perigee alt
1,216.3 km
Apogee alt
1,219.0 km
Semi-major
7,595.8 km
B*
1.3803e-3
RAAN
2.2104°
Arg perigee
103.3467°
Mean anomaly
256.7859°
Rev number
31,510

§ Raw data

ONEWEB-00851 45438U 20020Q   26263.04449000  .00000502  00000+0  13803-2 0  99912 45438  87.8972   2.2104 0001782 103.3467 256.7859 13.11414654315100

JSON: /api/v1/satellites/45438 · /tle

For live sub-satellite position, see the globe view (requires WebGL).

§ Visibility from observer

Set your observer location to see the next 7 days of passes ≥ 10°. The values pass through the URL so the page stays shareable.

No JS? Fill the form by hand. The geolocation button needs JavaScript.